Location: Unspecified
(0.0000°N, 0.0000°E)
Time: 14:18:06
(UTC+00:00)

X-37B - Pass Details

Date: 08 April 2021
Orbit: 380 x 394 km, 45.0° (Epoch: 07 April)

Event Time Altitude Azimuth Distance (km) Brightness Sun altitude
Exits shadow 04:50:47 13° 340° (NNW) 1,239 3.0 -17.6°
Drops below altitude 10° 04:51:31 10° 352° (N) 1,399 3.4 -17.4°
Sets 04:54:08 0° 16° (NNE) 2,245 4.8 -16.8°
